Time,TemperatureF,DewpointF,PressureIn,WindDirection,WindDirectionDegrees,WindSpeedMPH,WindSpeedGustMPH,Humidity,HourlyPrecipIn,Conditions,Clouds,dailyrainin,SoftwareType,DateUTC
2013-10-26 00:02:00,48.6,40.0,30.25,South,179,0.0,5.0,72,0.00,,BKN250,0.00,VWS V14.01,2013-10-26 05:02:00,
2013-10-26 00:08:00,48.6,40.0,30.25,SSE,155,0.0,7.0,72,0.00,,BKN250,0.00,VWS V14.01,2013-10-26 05:08:00,
2013-10-26 00:13:00,48.6,40.0,30.25,SSW,200,0.0,7.0,72,0.00,,BKN250,0.00,VWS V14.01,2013-10-26 05:13:00,
2013-10-26 00:18:00,48.6,40.0,30.25,SSW,195,2.0,7.0,72,0.00,,BKN250,0.00,VWS V14.01,2013-10-26 05:18:00,
2013-10-26 00:23:00,48.6,40.0,30.25,SSE,155,2.0,7.0,72,0.00,,BKN250,0.00,VWS V14.01,2013-10-26 05:23:00,
2013-10-26 00:28:00,48.8,40.2,30.25,South,186,2.0,7.0,72,0.00,,BKN250,0.00,VWS V14.01,2013-10-26 05:28:00,
2013-10-26 00:33:00,48.9,39.9,30.25,SSE,152,5.0,7.0,71,0.00,,BKN250,0.00,VWS V14.01,2013-10-26 05:33:00,
2013-10-26 00:38:00,48.9,40.3,30.25,South,171,0.0,7.0,72,0.00,,BKN250,0.00,VWS V14.01,2013-10-26 05:38:00,
2013-10-26 00:43:00,48.8,40.2,30.25,SSE,164,0.0,7.0,72,0.00,,BKN250,0.00,VWS V14.01,2013-10-26 05:43:00,
2013-10-26 00:48:00,48.8,40.2,30.24,SSW,203,0.0,7.0,72,0.00,,BKN250,0.00,VWS V14.01,2013-10-26 05:48:00,
2013-10-26 00:53:00,48.6,40.0,30.24,SSE,164,1.0,7.0,72,0.00,,BKN250,0.00,VWS V14.01,2013-10-26 05:53:00,
2013-10-26 00:58:00,48.5,39.9,30.24,SSW,192,5.0,8.0,72,0.00,,BKN250,0.00,VWS V14.01,2013-10-26 05:58:00,
2013-10-26 01:03:00,48.5,40.2,30.24,SSW,212,2.0,7.0,73,0.00,,BKN250,0.00,VWS V14.01,2013-10-26 06:03:00,
2013-10-26 01:08:00,48.3,40.1,30.24,South,184,5.0,7.0,73,0.00,,BKN250,0.00,VWS V14.01,2013-10-26 06:08:00,
2013-10-26 01:13:00,48.3,40.1,30.24,South,176,5.0,7.0,73,0.00,,BKN250,0.00,VWS V14.01,2013-10-26 06:13:00,
2013-10-26 01:18:00,48.2,40.0,30.23,SSE,158,0.0,7.0,73,0.00,,BKN250,0.00,VWS V14.01,2013-10-26 06:18:00,
2013-10-26 01:23:00,48.2,40.0,30.23,SSE,161,1.0,8.0,73,0.00,,BKN250,0.00,VWS V14.01,2013-10-26 06:23:00,
2013-10-26 01:28:00,48.2,40.0,30.23,SSE,168,0.0,8.0,73,0.00,,BKN250,0.00,VWS V14.01,2013-10-26 06:28:00,
2013-10-26 01:33:00,48.0,39.8,30.23,SE,143,0.0,8.0,73,0.00,,BKN250,0.00,VWS V14.01,2013-10-26 06:33:00,
2013-10-26 01:38:00,48.0,39.8,30.23,SSE,154,0.0,8.0,73,0.00,,BKN250,0.00,VWS V14.01,2013-10-26 06:38:00,
2013-10-26 01:43:00,48.2,40.0,30.23,South,191,5.0,8.0,73,0.00,,BKN250,0.00,VWS V14.01,2013-10-26 06:43:00,
2013-10-26 01:48:00,48.0,39.8,30.23,South,171,1.0,8.0,73,0.00,,BKN250,0.00,VWS V14.01,2013-10-26 06:48:00,
2013-10-26 01:53:00,48.2,40.3,30.23,SSE,150,3.0,8.0,74,0.00,,BKN250,0.00,VWS V14.01,2013-10-26 06:53:00,
2013-10-26 01:58:00,48.0,39.4,30.23,SSW,203,5.0,10.0,72,0.00,,BKN250,0.00,VWS V14.01,2013-10-26 06:58:00,
2013-10-26 02:04:00,48.0,39.4,30.23,SSE,167,1.0,7.0,72,0.00,,OVC220,0.00,VWS V14.01,2013-10-26 07:04:00,
2013-10-26 02:09:00,48.0,39.4,30.23,South,191,1.0,7.0,72,0.00,,OVC220,0.00,VWS V14.01,2013-10-26 07:09:00,
2013-10-26 02:14:00,48.0,39.4,30.23,SSW,199,2.0,7.0,72,0.00,,OVC220,0.00,VWS V14.01,2013-10-26 07:14:00,
2013-10-26 02:19:00,48.2,39.6,30.22,SSE,164,0.0,10.0,72,0.00,,OVC220,0.00,VWS V14.01,2013-10-26 07:19:00,
2013-10-26 02:24:00,48.2,39.2,30.22,SW,222,5.0,10.0,71,0.00,,OVC220,0.00,VWS V14.01,2013-10-26 07:24:00,
2013-10-26 02:29:00,48.2,39.2,30.22,South,179,5.0,10.0,71,0.00,,OVC220,0.00,VWS V14.01,2013-10-26 07:29:00,
2013-10-26 02:34:00,48.2,39.2,30.22,SW,216,2.0,10.0,71,0.00,,OVC220,0.00,VWS V14.01,2013-10-26 07:34:00,
2013-10-26 02:39:00,48.2,39.6,30.22,SE,143,7.0,10.0,72,0.00,,OVC220,0.00,VWS V14.01,2013-10-26 07:39:00,
2013-10-26 02:44:00,48.3,39.3,30.22,SSE,160,2.0,12.0,71,0.00,,OVC220,0.00,VWS V14.01,2013-10-26 07:44:00,
2013-10-26 02:49:00,48.3,39.3,30.22,SE,134,5.0,14.0,71,0.00,,OVC220,0.00,VWS V14.01,2013-10-26 07:49:00,
2013-10-26 02:54:00,48.5,39.2,30.22,South,172,2.0,14.0,70,0.00,,OVC220,0.00,VWS V14.01,2013-10-26 07:54:00,
2013-10-26 02:59:00,48.5,39.2,30.22,SSW,203,10.0,14.0,70,0.00,,OVC220,0.00,VWS V14.01,2013-10-26 07:59:00,
2013-10-26 03:04:00,48.5,39.2,30.22,SSW,210,5.0,10.0,70,0.00,,OVC210,0.00,VWS V14.01,2013-10-26 08:04:00,
2013-10-26 03:09:00,48.5,39.9,30.22,SSW,192,3.0,10.0,72,0.00,,OVC210,0.00,VWS V14.01,2013-10-26 08:09:00,
2013-10-26 03:14:00,48.5,39.9,30.22,South,172,2.0,12.0,72,0.00,,OVC210,0.00,VWS V14.01,2013-10-26 08:14:00,
2013-10-26 03:19:00,48.6,40.0,30.22,South,175,2.0,12.0,72,0.00,,OVC210,0.00,VWS V14.01,2013-10-26 08:19:00,
2013-10-26 03:24:00,48.6,40.3,30.22,SSW,200,0.0,12.0,73,0.00,,OVC210,0.00,VWS V14.01,2013-10-26 08:24:00,
2013-10-26 03:29:00,48.6,40.0,30.21,SSW,209,7.0,12.0,72,0.00,,OVC210,0.00,VWS V14.01,2013-10-26 08:29:00,
2013-10-26 03:34:00,48.6,40.3,30.21,SSW,213,3.0,12.0,73,0.00,,OVC210,0.00,VWS V14.01,2013-10-26 08:34:00,
2013-10-26 03:39:00,48.6,39.6,30.21,SSW,202,10.0,14.0,71,0.00,,OVC210,0.00,VWS V14.01,2013-10-26 08:39:00,
2013-10-26 03:44:00,48.6,39.3,30.21,SSW,209,0.0,14.0,70,0.00,,OVC210,0.00,VWS V14.01,2013-10-26 08:44:00,
2013-10-26 03:49:00,48.6,40.0,30.21,SSW,200,6.0,14.0,72,0.00,,OVC210,0.00,VWS V14.01,2013-10-26 08:49:00,
2013-10-26 03:54:00,48.5,40.2,30.21,SSW,200,5.0,14.0,73,0.00,,OVC210,0.00,VWS V14.01,2013-10-26 08:54:00,
2013-10-26 03:59:00,48.5,39.9,30.21,SSW,202,0.0,14.0,72,0.00,,OVC210,0.00,VWS V14.01,2013-10-26 08:59:00,
2013-10-26 04:04:00,48.3,40.1,30.21,SSW,198,2.0,6.0,73,0.00,,OVC190,0.00,VWS V14.01,2013-10-26 09:04:00,
2013-10-26 04:10:00,48.2,39.2,30.21,South,191,5.0,10.0,71,0.00,,OVC190,0.00,VWS V14.01,2013-10-26 09:10:00,
2013-10-26 04:15:00,48.3,40.1,30.21,SSW,212,5.0,11.0,73,0.00,,OVC190,0.00,VWS V14.01,2013-10-26 09:15:00,
2013-10-26 04:20:00,48.3,39.7,30.21,SSE,157,2.0,11.0,72,0.00,,OVC190,0.00,VWS V14.01,2013-10-26 09:20:00,
2013-10-26 04:25:00,48.3,39.7,30.21,SE,141,2.0,11.0,72,0.00,,OVC190,0.00,VWS V14.01,2013-10-26 09:25:00,
2013-10-26 04:30:00,48.2,39.6,30.21,SSW,195,2.0,11.0,72,0.00,,OVC190,0.00,VWS V14.01,2013-10-26 09:30:00,
2013-10-26 04:35:00,48.2,39.2,30.21,SSW,193,0.0,11.0,71,0.00,,OVC190,0.00,VWS V14.01,2013-10-26 09:35:00,
2013-10-26 04:40:00,48.2,39.6,30.21,SSW,206,5.0,11.0,72,0.00,,OVC190,0.00,VWS V14.01,2013-10-26 09:40:00,
2013-10-26 04:45:00,48.2,40.0,30.21,South,178,3.0,11.0,73,0.00,,OVC190,0.00,VWS V14.01,2013-10-26 09:45:00,
2013-10-26 04:50:00,48.2,40.0,30.21,SSW,212,2.0,11.0,73,0.00,,OVC190,0.00,VWS V14.01,2013-10-26 09:50:00,
2013-10-26 04:55:00,48.2,40.0,30.21,SSW,206,5.0,11.0,73,0.00,,OVC190,0.00,VWS V14.01,2013-10-26 09:55:00,
2013-10-26 05:00:00,48.0,39.8,30.21,SSW,200,2.0,2.0,73,0.00,,BKN250,0.00,VWS V14.01,2013-10-26 10:00:00,
2013-10-26 05:05:00,48.0,39.4,30.21,SSW,203,1.0,7.0,72,0.00,,BKN250,0.00,VWS V14.01,2013-10-26 10:05:00,
2013-10-26 05:10:00,48.0,39.8,30.21,SSE,168,2.0,7.0,73,0.00,,BKN250,0.00,VWS V14.01,2013-10-26 10:10:00,
2013-10-26 05:15:00,48.0,39.8,30.21,SSE,165,2.0,7.0,73,0.00,,BKN250,0.00,VWS V14.01,2013-10-26 10:15:00,
2013-10-26 05:20:00,48.0,39.8,30.21,SW,227,5.0,7.0,73,0.00,,BKN250,0.00,VWS V14.01,2013-10-26 10:20:00,
2013-10-26 05:25:00,47.9,39.7,30.21,SW,227,0.0,7.0,73,0.00,,BKN250,0.00,VWS V14.01,2013-10-26 10:25:00,
2013-10-26 05:30:00,47.9,39.7,30.21,South,172,0.0,7.0,73,0.00,,BKN250,0.00,VWS V14.01,2013-10-26 10:30:00,
2013-10-26 05:35:00,47.9,39.7,30.21,South,184,0.0,7.0,73,0.00,,BKN250,0.00,VWS V14.01,2013-10-26 10:35:00,
2013-10-26 05:40:00,47.9,39.7,30.21,South,185,0.0,7.0,73,0.00,,BKN250,0.00,VWS V14.01,2013-10-26 10:40:00,
2013-10-26 05:45:00,47.9,39.7,30.21,SSE,165,1.0,7.0,73,0.00,,BKN250,0.00,VWS V14.01,2013-10-26 10:45:00,
2013-10-26 05:50:00,48.0,39.8,30.21,South,176,0.0,7.0,73,0.00,,BKN250,0.00,VWS V14.01,2013-10-26 10:50:00,
2013-10-26 05:55:00,48.0,39.8,30.21,South,184,1.0,7.0,73,0.00,,BKN250,0.00,VWS V14.01,2013-10-26 10:55:00,
2013-10-26 06:00:00,48.0,39.8,30.22,SSW,198,0.0,5.0,73,0.00,,BKN210,0.00,VWS V14.01,2013-10-26 11:00:00,
2013-10-26 06:05:00,48.0,39.4,30.22,South,179,0.0,5.0,72,0.00,,BKN210,0.00,VWS V14.01,2013-10-26 11:05:00,
2013-10-26 06:10:00,48.2,39.6,30.22,SSE,155,0.0,5.0,72,0.00,,BKN210,0.00,VWS V14.01,2013-10-26 11:10:00,
2013-10-26 06:15:00,48.2,40.0,30.22,SSE,164,0.0,5.0,73,0.00,,BKN210,0.00,VWS V14.01,2013-10-26 11:15:00,
2013-10-26 06:21:00,48.2,40.0,30.22,South,169,2.0,5.0,73,0.00,,BKN210,0.00,VWS V14.01,2013-10-26 11:21:00,
2013-10-26 06:26:00,48.2,40.0,30.22,SSE,154,0.0,5.0,73,0.00,,BKN210,0.00,VWS V14.01,2013-10-26 11:26:00,
2013-10-26 06:31:00,48.2,40.0,30.21,South,174,0.0,5.0,73,0.00,,BKN210,0.00,VWS V14.01,2013-10-26 11:31:00,
2013-10-26 06:36:00,48.2,40.0,30.21,SSE,158,0.0,5.0,73,0.00,,BKN210,0.00,VWS V14.01,2013-10-26 11:36:00,
2013-10-26 06:41:00,48.0,39.8,30.21,ESE,120,0.0,6.0,73,0.00,,BKN210,0.00,VWS V14.01,2013-10-26 11:41:00,
2013-10-26 06:46:00,48.0,39.8,30.21,SSE,147,3.0,6.0,73,0.00,,BKN210,0.00,VWS V14.01,2013-10-26 11:46:00,
2013-10-26 06:51:00,48.2,40.0,30.21,SSE,154,2.0,7.0,73,0.00,,BKN210,0.00,VWS V14.01,2013-10-26 11:51:00,
2013-10-26 06:56:00,48.2,40.0,30.21,SSE,160,0.0,7.0,73,0.00,,BKN210,0.00,VWS V14.01,2013-10-26 11:56:00,
2013-10-26 07:01:00,48.2,40.0,30.21,SSE,167,3.0,3.0,73,0.00,,OVC200,0.00,VWS V14.01,2013-10-26 12:01:00,
2013-10-26 07:06:00,48.2,40.3,30.21,SSE,164,0.0,5.0,74,0.00,,OVC200,0.00,VWS V14.01,2013-10-26 12:06:00,
2013-10-26 07:11:00,48.3,40.4,30.21,South,175,0.0,5.0,74,0.00,,OVC200,0.00,VWS V14.01,2013-10-26 12:11:00,
2013-10-26 07:16:00,48.3,40.1,30.21,SSE,154,0.0,7.0,73,0.00,,OVC200,0.00,VWS V14.01,2013-10-26 12:16:00,
2013-10-26 07:21:00,48.3,40.1,30.21,SSW,192,0.0,7.0,73,0.00,,OVC200,0.00,VWS V14.01,2013-10-26 12:21:00,
2013-10-26 07:26:00,48.3,40.4,30.21,SSE,167,0.0,7.0,74,0.00,,OVC200,0.00,VWS V14.01,2013-10-26 12:26:00,
2013-10-26 07:31:00,48.3,40.4,30.21,SSE,157,1.0,7.0,74,0.00,,OVC200,0.00,VWS V14.01,2013-10-26 12:31:00,
2013-10-26 07:36:00,48.3,40.4,30.21,South,182,0.0,11.0,74,0.00,,OVC200,0.00,VWS V14.01,2013-10-26 12:36:00,
2013-10-26 07:41:00,48.3,40.4,30.21,SSE,168,0.0,11.0,74,0.00,,OVC200,0.00,VWS V14.01,2013-10-26 12:41:00,
2013-10-26 07:46:00,48.3,40.4,30.20,SE,144,0.0,11.0,74,0.00,,OVC200,0.00,VWS V14.01,2013-10-26 12:46:00,
2013-10-26 07:51:00,48.3,40.8,30.20,South,174,0.0,11.0,75,0.00,,OVC200,0.00,VWS V14.01,2013-10-26 12:51:00,
2013-10-26 07:56:00,48.2,40.3,30.20,SE,130,0.0,11.0,74,0.00,,OVC200,0.00,VWS V14.01,2013-10-26 12:56:00,
2013-10-26 08:01:00,48.2,40.3,30.20,South,188,0.0,1.0,74,0.00,,OVC250,0.00,VWS V14.01,2013-10-26 13:01:00,
2013-10-26 08:06:00,48.2,40.7,30.20,ESE,120,0.0,2.0,75,0.00,,OVC250,0.00,VWS V14.01,2013-10-26 13:06:00,
2013-10-26 08:11:00,48.2,40.7,30.20,SSE,157,0.0,5.0,75,0.00,,OVC250,0.00,VWS V14.01,2013-10-26 13:11:00,
2013-10-26 08:16:00,48.3,40.8,30.20,SSE,158,2.0,5.0,75,0.00,,OVC250,0.00,VWS V14.01,2013-10-26 13:16:00,
2013-10-26 08:21:00,48.3,40.8,30.20,SSE,168,0.0,5.0,75,0.00,,OVC250,0.00,VWS V14.01,2013-10-26 13:21:00,
2013-10-26 08:26:00,48.5,41.0,30.20,SW,217,2.0,5.0,75,0.00,,OVC250,0.00,VWS V14.01,2013-10-26 13:26:00,
2013-10-26 08:32:00,48.6,41.0,30.20,SSE,152,7.0,7.0,75,0.00,,OVC250,0.00,VWS V14.01,2013-10-26 13:32:00,
2013-10-26 08:37:00,48.6,41.0,30.20,ESE,107,0.0,7.0,75,0.00,,OVC250,0.00,VWS V14.01,2013-10-26 13:37:00,
2013-10-26 08:42:00,48.8,40.9,30.20,South,169,0.0,7.0,74,0.00,,OVC250,0.00,VWS V14.01,2013-10-26 13:42:00,
2013-10-26 08:47:00,48.9,41.3,30.20,SE,134,0.0,7.0,75,0.00,,OVC250,0.00,VWS V14.01,2013-10-26 13:47:00,
2013-10-26 08:52:00,49.2,42.3,30.20,South,184,0.0,7.0,77,0.00,,OVC250,0.00,VWS V14.01,2013-10-26 13:52:00,
2013-10-26 08:57:00,49.5,41.6,30.20,SE,131,1.0,7.0,74,0.00,,OVC250,0.00,VWS V14.01,2013-10-26 13:57:00,
2013-10-26 09:02:00,50.1,42.2,30.20,SSE,151,1.0,3.0,74,0.00,,OVC250,0.00,VWS V14.01,2013-10-26 14:02:00,
2013-10-26 09:07:00,50.5,42.2,30.20,SSE,158,2.0,5.0,73,0.00,,OVC250,0.00,VWS V14.01,2013-10-26 14:07:00,
2013-10-26 09:12:00,51.0,42.3,30.20,SE,140,0.0,10.0,72,0.00,,OVC250,0.00,VWS V14.01,2013-10-26 14:12:00,
2013-10-26 09:17:00,51.4,42.7,30.20,SSE,165,2.0,10.0,72,0.00,,OVC250,0.00,VWS V14.01,2013-10-26 14:17:00,
2013-10-26 09:22:00,51.9,42.4,30.20,SSW,196,3.0,10.0,70,0.00,,OVC250,0.00,VWS V14.01,2013-10-26 14:22:00,
2013-10-26 09:27:00,52.3,42.5,30.20,South,182,2.0,10.0,69,0.00,,OVC250,0.00,VWS V14.01,2013-10-26 14:27:00,
2013-10-26 09:32:00,52.6,43.5,30.20,South,189,0.0,10.0,71,0.00,,OVC250,0.00,VWS V14.01,2013-10-26 14:32:00,
2013-10-26 09:37:00,52.9,43.8,30.20,SW,234,7.0,10.0,71,0.00,,OVC250,0.00,VWS V14.01,2013-10-26 14:37:00,
2013-10-26 09:42:00,53.1,44.0,30.20,SSW,193,2.0,12.0,71,0.00,,OVC250,0.00,VWS V14.01,2013-10-26 14:42:00,
2013-10-26 09:47:00,53.1,43.6,30.20,South,184,7.0,12.0,70,0.00,,OVC250,0.00,VWS V14.01,2013-10-26 14:47:00,
2013-10-26 09:52:00,53.1,44.0,30.20,SSW,199,7.0,12.0,71,0.00,,OVC250,0.00,VWS V14.01,2013-10-26 14:52:00,
2013-10-26 09:57:00,53.5,44.3,30.20,SSW,200,5.0,12.0,71,0.00,,OVC250,0.00,VWS V14.01,2013-10-26 14:57:00,
2013-10-26 10:02:00,53.8,44.6,30.20,ENE,78,0.0,10.0,71,0.00,,BKN250,0.00,VWS V14.01,2013-10-26 15:02:00,
2013-10-26 10:07:00,54.1,44.5,30.20,SW,233,2.0,10.0,70,0.00,,BKN250,0.00,VWS V14.01,2013-10-26 15:07:00,
2013-10-26 10:12:00,54.1,44.5,30.20,South,181,5.0,10.0,70,0.00,,BKN250,0.00,VWS V14.01,2013-10-26 15:12:00,
2013-10-26 10:17:00,54.4,45.2,30.20,SSW,202,7.0,10.0,71,0.00,,BKN250,0.00,VWS V14.01,2013-10-26 15:17:00,
2013-10-26 10:22:00,54.8,44.8,30.20,South,178,2.0,10.0,69,0.00,,BKN250,0.00,VWS V14.01,2013-10-26 15:22:00,
2013-10-26 10:27:00,54.8,45.2,30.20,SSW,196,0.0,10.0,70,0.00,,BKN250,0.00,VWS V14.01,2013-10-26 15:27:00,
2013-10-26 10:32:00,55.0,45.8,30.20,SSW,199,2.0,10.0,71,0.00,,BKN250,0.00,VWS V14.01,2013-10-26 15:32:00,
2013-10-26 10:37:00,55.1,45.9,30.20,South,188,3.0,10.0,71,0.00,,BKN250,0.00,VWS V14.01,2013-10-26 15:37:00,
2013-10-26 10:42:00,55.3,45.7,30.20,SSW,199,2.0,10.0,70,0.00,,BKN250,0.00,VWS V14.01,2013-10-26 15:42:00,
2013-10-26 10:48:00,55.1,45.5,30.20,SSW,193,0.0,10.0,70,0.00,,BKN250,0.00,VWS V14.01,2013-10-26 15:48:00,
2013-10-26 10:53:00,55.3,46.1,30.20,SSW,196,2.0,10.0,71,0.00,,BKN250,0.00,VWS V14.01,2013-10-26 15:53:00,
2013-10-26 10:58:00,55.4,46.5,30.20,SSE,162,1.0,10.0,72,0.00,,BKN250,0.00,VWS V14.01,2013-10-26 15:58:00,
2013-10-26 11:03:00,55.6,46.7,30.20,SSE,160,2.0,10.0,72,0.00,,OVC110,0.00,VWS V14.01,2013-10-26 16:03:00,
2013-10-26 11:08:00,55.7,46.8,30.20,SW,215,0.0,10.0,72,0.00,,OVC110,0.00,VWS V14.01,2013-10-26 16:08:00,
2013-10-26 11:13:00,55.9,47.0,30.20,SW,217,5.0,10.0,72,0.00,,OVC110,0.00,VWS V14.01,2013-10-26 16:13:00,
2013-10-26 11:18:00,56.0,47.1,30.20,SSW,205,5.0,10.0,72,0.00,,OVC110,0.00,VWS V14.01,2013-10-26 16:18:00,
2013-10-26 11:23:00,56.3,47.4,30.20,SW,222,2.0,10.0,72,0.00,,OVC110,0.00,VWS V14.01,2013-10-26 16:23:00,
2013-10-26 11:28:00,56.7,47.8,30.20,SSW,200,2.0,10.0,72,0.00,,OVC110,0.00,VWS V14.01,2013-10-26 16:28:00,
2013-10-26 11:33:00,57.0,47.7,30.20,South,184,5.0,10.0,71,0.00,,OVC110,0.00,VWS V14.01,2013-10-26 16:33:00,
2013-10-26 11:38:00,57.2,47.9,30.20,SSW,193,2.0,10.0,71,0.00,,OVC110,0.00,VWS V14.01,2013-10-26 16:38:00,
2013-10-26 11:43:00,57.3,48.4,30.20,SSW,202,0.0,10.0,72,0.00,,OVC110,0.00,VWS V14.01,2013-10-26 16:43:00,
2013-10-26 11:48:00,57.5,48.9,30.20,SSW,208,2.0,10.0,73,0.00,,OVC110,0.00,VWS V14.01,2013-10-26 16:48:00,
2013-10-26 11:53:00,57.5,49.3,30.20,SSW,196,0.0,10.0,74,0.00,,OVC110,0.00,VWS V14.01,2013-10-26 16:53:00,
2013-10-26 11:58:00,57.8,49.2,30.20,SSW,210,3.0,10.0,73,0.00,,OVC110,0.00,VWS V14.01,2013-10-26 16:58:00,
2013-10-26 12:03:00,58.1,49.1,30.20,South,184,0.0,5.0,72,0.00,,OVC100,0.00,VWS V14.01,2013-10-26 17:03:00,
2013-10-26 12:08:00,58.3,49.3,30.20,SSW,200,6.0,7.0,72,0.00,,OVC100,0.00,VWS V14.01,2013-10-26 17:08:00,
2013-10-26 12:13:00,58.4,49.4,30.20,South,188,2.0,7.0,72,0.00,,OVC100,0.00,VWS V14.01,2013-10-26 17:13:00,
2013-10-26 12:18:00,58.7,49.3,30.19,South,181,0.0,7.0,71,0.00,,OVC100,0.00,VWS V14.01,2013-10-26 17:18:00,
2013-10-26 12:23:00,59.0,49.6,30.19,SSE,164,0.0,7.0,71,0.00,,OVC100,0.00,VWS V14.01,2013-10-26 17:23:00,
2013-10-26 12:28:00,59.5,49.7,30.19,SSE,161,0.0,7.0,70,0.00,,OVC100,0.00,VWS V14.01,2013-10-26 17:28:00,
2013-10-26 12:33:00,59.9,49.7,30.18,SSW,212,2.0,7.0,69,0.00,,OVC100,0.00,VWS V14.01,2013-10-26 17:33:00,
2013-10-26 12:38:00,59.9,50.1,30.18,South,189,0.0,7.0,70,0.00,,OVC100,0.00,VWS V14.01,2013-10-26 17:38:00,
2013-10-26 12:43:00,60.2,50.0,30.18,South,175,2.0,7.0,69,0.00,,OVC100,0.00,VWS V14.01,2013-10-26 17:43:00,
2013-10-26 12:48:00,60.9,50.7,30.17,SE,136,0.0,7.0,69,0.00,,OVC100,0.00,VWS V14.01,2013-10-26 17:48:00,
2013-10-26 12:53:00,61.2,50.6,30.17,SW,216,0.0,7.0,68,0.00,,OVC100,0.00,VWS V14.01,2013-10-26 17:53:00,
2013-10-26 12:58:00,61.3,51.1,30.17,South,184,3.0,7.0,69,0.00,,OVC100,0.00,VWS V14.01,2013-10-26 17:58:00,
2013-10-26 13:04:00,61.3,50.3,30.16,SSE,154,2.0,6.0,67,0.00,,OVC110,0.00,VWS V14.01,2013-10-26 18:04:00,
2013-10-26 13:09:00,61.5,51.2,30.16,SSW,196,5.0,6.0,69,0.00,,OVC110,0.00,VWS V14.01,2013-10-26 18:09:00,
2013-10-26 13:14:00,61.6,51.3,30.16,SSW,198,0.0,6.0,69,0.00,,OVC110,0.00,VWS V14.01,2013-10-26 18:14:00,
2013-10-26 13:19:00,62.1,51.8,30.16,SSW,200,5.0,6.0,69,0.00,,OVC110,0.00,VWS V14.01,2013-10-26 18:19:00,
2013-10-26 13:24:00,62.3,52.0,30.16,SSE,158,0.0,6.0,69,0.00,,OVC110,0.00,VWS V14.01,2013-10-26 18:24:00,
2013-10-26 13:29:00,62.6,52.3,30.16,East,88,1.0,6.0,69,0.00,,OVC110,0.00,VWS V14.01,2013-10-26 18:29:00,
2013-10-26 13:34:00,63.1,52.8,30.15,SSW,205,1.0,6.0,69,0.00,,OVC110,0.00,VWS V14.01,2013-10-26 18:34:00,
2013-10-26 13:39:00,63.4,53.1,30.15,SSW,193,0.0,6.0,69,0.00,,OVC110,0.00,VWS V14.01,2013-10-26 18:39:00,
2013-10-26 13:44:00,64.0,52.8,30.14,SE,137,0.0,6.0,67,0.00,,OVC110,0.00,VWS V14.01,2013-10-26 18:44:00,
2013-10-26 13:49:00,65.2,54.0,30.14,SSW,196,2.0,6.0,67,0.00,,OVC110,0.00,VWS V14.01,2013-10-26 18:49:00,
2013-10-26 13:54:00,65.8,53.3,30.14,South,171,0.0,6.0,64,0.00,,OVC110,0.00,VWS V14.01,2013-10-26 18:54:00,
2013-10-26 13:59:00,65.5,53.4,30.13,SE,131,0.0,6.0,65,0.00,,OVC110,0.00,VWS V14.01,2013-10-26 18:59:00,
2013-10-26 14:04:00,65.6,53.5,30.13,East,79,0.0,2.0,65,0.00,,OVC095,0.00,VWS V14.01,2013-10-26 19:04:00,
2013-10-26 14:09:00,65.2,52.7,30.13,SE,133,2.0,6.0,64,0.00,,OVC095,0.00,VWS V14.01,2013-10-26 19:09:00,
2013-10-26 14:14:00,64.2,53.0,30.13,SE,133,2.0,6.0,67,0.00,,OVC095,0.00,VWS V14.01,2013-10-26 19:14:00,
2013-10-26 14:19:00,63.9,52.7,30.13,SE,131,0.0,6.0,67,0.00,,OVC095,0.00,VWS V14.01,2013-10-26 19:19:00,
2013-10-26 14:24:00,63.9,52.7,30.13,SE,131,0.0,6.0,67,0.00,,OVC095,0.00,VWS V14.01,2013-10-26 19:24:00,
2013-10-26 14:29:00,63.9,52.7,30.13,SE,131,0.0,6.0,67,0.00,,OVC095,0.00,VWS V14.01,2013-10-26 19:29:00,
2013-10-26 14:34:00,63.9,52.7,30.13,East,99,0.0,6.0,67,0.00,,OVC095,0.00,VWS V14.01,2013-10-26 19:34:00,
2013-10-26 14:39:00,63.9,53.1,30.13,ENE,78,2.0,6.0,68,0.00,,OVC095,0.00,VWS V14.01,2013-10-26 19:39:00,
2013-10-26 14:44:00,64.3,53.5,30.13,ENE,75,0.0,6.0,68,0.00,,OVC095,0.00,VWS V14.01,2013-10-26 19:44:00,
2013-10-26 14:49:00,64.5,53.3,30.13,ENE,71,3.0,6.0,67,0.00,,OVC095,0.00,VWS V14.01,2013-10-26 19:49:00,
2013-10-26 14:54:00,64.7,53.9,30.13,ENE,65,0.0,6.0,68,0.00,,OVC095,0.00,VWS V14.01,2013-10-26 19:54:00,
2013-10-26 14:59:00,65.2,54.0,30.13,NNE,27,2.0,6.0,67,0.00,,OVC095,0.00,VWS V14.01,2013-10-26 19:59:00,
2013-10-26 15:04:00,65.2,53.2,30.13,NNE,25,0.0,3.0,65,0.00,,OVC075,0.00,VWS V14.01,2013-10-26 20:04:00,
2013-10-26 15:09:00,64.8,53.2,30.13,NNE,31,0.0,3.0,66,0.00,,OVC075,0.00,VWS V14.01,2013-10-26 20:09:00,
2013-10-26 15:14:00,65.0,54.2,30.13,NE,35,0.0,3.0,68,0.00,,OVC075,0.00,VWS V14.01,2013-10-26 20:14:00,
2013-10-26 15:20:00,65.0,53.8,30.13,NE,35,0.0,3.0,67,0.00,,OVC075,0.00,VWS V14.01,2013-10-26 20:20:00,
2013-10-26 15:25:00,65.0,53.8,30.13,ENE,72,2.0,3.0,67,0.00,,OVC075,0.00,VWS V14.01,2013-10-26 20:25:00,
2013-10-26 15:30:00,64.7,53.5,30.14,East,79,5.0,5.0,67,0.00,,OVC075,0.00,VWS V14.01,2013-10-26 20:30:00,
2013-10-26 15:35:00,64.0,52.4,30.14,East,79,2.0,7.0,66,0.00,,OVC075,0.00,VWS V14.01,2013-10-26 20:35:00,
2013-10-26 15:40:00,63.7,52.5,30.14,ENE,73,0.0,7.0,67,0.00,,OVC075,0.00,VWS V14.01,2013-10-26 20:40:00,
2013-10-26 15:45:00,63.7,53.0,30.14,NE,49,1.0,7.0,68,0.00,,OVC075,0.00,VWS V14.01,2013-10-26 20:45:00,
2013-10-26 15:50:00,63.5,52.8,30.14,NNE,20,0.0,7.0,68,0.00,,OVC075,0.00,VWS V14.01,2013-10-26 20:50:00,
2013-10-26 15:55:00,63.5,53.2,30.14,NE,40,2.0,7.0,69,0.00,,OVC075,0.00,VWS V14.01,2013-10-26 20:55:00,
2013-10-26 16:00:00,63.2,52.5,30.14,North,7,0.0,0.0,68,0.00,,OVC080,0.00,VWS V14.01,2013-10-26 21:00:00,
2013-10-26 16:05:00,63.2,52.5,30.14,North,6,0.0,2.0,68,0.00,,OVC080,0.00,VWS V14.01,2013-10-26 21:05:00,
2013-10-26 16:10:00,63.1,52.8,30.14,North,6,0.0,2.0,69,0.00,,OVC080,0.00,VWS V14.01,2013-10-26 21:10:00,
2013-10-26 16:15:00,62.9,52.6,30.14,North,6,0.0,2.0,69,0.00,,OVC080,0.00,VWS V14.01,2013-10-26 21:15:00,
2013-10-26 16:20:00,62.7,52.8,30.14,North,6,0.0,2.0,70,0.00,,OVC080,0.00,VWS V14.01,2013-10-26 21:20:00,
2013-10-26 16:25:00,62.6,52.7,30.14,North,6,0.0,2.0,70,0.00,,OVC080,0.00,VWS V14.01,2013-10-26 21:25:00,
2013-10-26 16:30:00,62.4,52.5,30.14,North,6,1.0,2.0,70,0.00,,OVC080,0.00,VWS V14.01,2013-10-26 21:30:00,
2013-10-26 16:35:00,62.4,52.5,30.14,NE,35,0.0,5.0,70,0.00,,OVC080,0.00,VWS V14.01,2013-10-26 21:35:00,
2013-10-26 16:40:00,62.3,52.4,30.14,NE,38,0.0,5.0,70,0.00,,OVC080,0.00,VWS V14.01,2013-10-26 21:40:00,
2013-10-26 16:45:00,62.3,52.8,30.14,NE,38,0.0,5.0,71,0.00,,OVC080,0.00,VWS V14.01,2013-10-26 21:45:00,
2013-10-26 16:50:00,62.3,52.8,30.14,NE,38,0.0,5.0,71,0.00,,OVC080,0.00,VWS V14.01,2013-10-26 21:50:00,
2013-10-26 16:55:00,62.3,52.4,30.14,NE,45,2.0,5.0,70,0.00,,OVC080,0.00,VWS V14.01,2013-10-26 21:55:00,
2013-10-26 17:00:00,62.4,52.9,30.13,ENE,65,2.0,3.0,71,0.00,,OVC039,0.00,VWS V14.01,2013-10-26 22:00:00,
2013-10-26 17:06:00,62.6,53.5,30.13,NE,44,0.0,5.0,72,0.00,,OVC039,0.00,VWS V14.01,2013-10-26 22:06:00,
2013-10-26 17:11:00,62.6,52.7,30.13,ENE,72,5.0,7.0,70,0.00,,OVC039,0.00,VWS V14.01,2013-10-26 22:11:00,
2013-10-26 17:16:00,62.4,52.9,30.12,ENE,65,6.0,7.0,71,0.00,,OVC039,0.00,VWS V14.01,2013-10-26 22:16:00,
2013-10-26 17:21:00,62.3,52.0,30.12,ENE,69,2.0,8.0,69,0.00,,OVC039,0.00,VWS V14.01,2013-10-26 22:21:00,
2013-10-26 17:26:00,62.1,53.0,30.12,East,82,3.0,8.0,72,0.00,,OVC039,0.00,VWS V14.01,2013-10-26 22:26:00,
2013-10-26 17:31:00,62.0,52.5,30.12,ENE,72,0.0,8.0,71,0.00,,OVC039,0.00,VWS V14.01,2013-10-26 22:31:00,
2013-10-26 17:36:00,61.8,51.9,30.12,ESE,120,0.0,8.0,70,0.00,,OVC039,0.00,VWS V14.01,2013-10-26 22:36:00,
2013-10-26 17:41:00,61.6,52.5,30.12,East,79,2.0,8.0,72,0.00,,OVC039,0.00,VWS V14.01,2013-10-26 22:41:00,
2013-10-26 17:46:00,61.5,52.8,30.11,ENE,66,0.0,8.0,73,0.00,,OVC039,0.00,VWS V14.01,2013-10-26 22:46:00,
2013-10-26 17:51:00,61.3,52.6,30.11,East,85,0.0,8.0,73,0.00,,OVC039,0.00,VWS V14.01,2013-10-26 22:51:00,
2013-10-26 17:56:00,61.2,52.5,30.11,East,86,0.0,8.0,73,0.00,,OVC039,0.00,VWS V14.01,2013-10-26 22:56:00,
2013-10-26 18:00:00,61.2,52.9,30.12,East,86,0.0,8.0,74,0.00,,OVC041CB,0.00,VWS V14.01,2013-10-26 23:00:00,
2013-10-26 18:01:00,61.0,52.7,30.12,East,86,0.0,0.0,74,0.00,,BKN080,0.00,VWS V14.01,2013-10-26 23:01:00,
2013-10-26 18:06:00,60.9,52.6,30.12,East,86,0.0,1.0,74,0.00,,BKN080,0.00,VWS V14.01,2013-10-26 23:06:00,
2013-10-26 18:11:00,60.5,52.5,30.12,East,86,0.0,1.0,75,0.00,,BKN080,0.00,VWS V14.01,2013-10-26 23:11:00,
2013-10-26 18:16:00,60.4,52.8,30.11,East,86,0.0,1.0,76,0.00,,BKN080,0.00,VWS V14.01,2013-10-26 23:16:00,
2013-10-26 18:21:00,60.2,52.6,30.11,East,86,0.0,1.0,76,0.00,,BKN080,0.00,VWS V14.01,2013-10-26 23:21:00,
2013-10-26 18:26:00,60.1,52.9,30.11,East,86,0.0,1.0,77,0.00,,BKN080,0.00,VWS V14.01,2013-10-26 23:26:00,
2013-10-26 18:31:00,59.8,52.6,30.11,East,86,0.0,1.0,77,0.00,,BKN080,0.00,VWS V14.01,2013-10-26 23:31:00,
2013-10-26 18:36:00,59.6,52.7,30.11,East,86,0.0,1.0,78,0.00,,BKN080,0.00,VWS V14.01,2013-10-26 23:36:00,
2013-10-26 18:41:00,59.3,52.5,30.11,East,86,0.0,1.0,78,0.00,,BKN080,0.00,VWS V14.01,2013-10-26 23:41:00,
2013-10-26 18:46:00,59.2,52.7,30.13,East,86,0.0,1.0,79,0.00,,BKN080,0.00,VWS V14.01,2013-10-26 23:46:00,
2013-10-26 18:51:00,59.0,52.5,30.13,East,86,0.0,1.0,79,0.00,,BKN080,0.00,VWS V14.01,2013-10-26 23:51:00,
2013-10-26 18:56:00,59.0,52.8,30.13,East,86,0.0,1.0,80,0.00,,BKN080,0.00,VWS V14.01,2013-10-26 23:56:00,
2013-10-26 19:01:00,59.0,52.8,30.13,East,86,0.0,0.0,80,0.00,,OVC037,0.00,VWS V14.01,2013-10-27 00:01:00,
2013-10-26 19:06:00,59.2,53.0,30.13,East,86,0.0,0.0,80,0.00,,OVC037,0.00,VWS V14.01,2013-10-27 00:06:00,
2013-10-26 19:11:00,59.2,53.0,30.13,East,86,0.0,1.0,80,0.00,,OVC037,0.00,VWS V14.01,2013-10-27 00:11:00,
2013-10-26 19:17:00,59.2,53.0,30.14,East,86,0.0,1.0,80,0.00,,OVC037,0.00,VWS V14.01,2013-10-27 00:17:00,
2013-10-26 19:22:00,59.2,53.4,30.14,East,86,0.0,1.0,81,0.00,,OVC037,0.00,VWS V14.01,2013-10-27 00:22:00,
2013-10-26 19:27:00,59.2,53.4,30.14,East,86,0.0,1.0,81,0.00,,OVC037,0.00,VWS V14.01,2013-10-27 00:27:00,
2013-10-26 19:32:00,59.3,53.5,30.14,East,86,0.0,1.0,81,0.00,,OVC037,0.00,VWS V14.01,2013-10-27 00:32:00,
2013-10-26 19:37:00,59.3,53.5,30.14,East,86,0.0,1.0,81,0.00,,OVC037,0.00,VWS V14.01,2013-10-27 00:37:00,
2013-10-26 19:42:00,59.3,53.5,30.14,East,86,0.0,1.0,81,0.00,,OVC037,0.00,VWS V14.01,2013-10-27 00:42:00,
2013-10-26 19:47:00,59.2,53.4,30.14,East,86,0.0,1.0,81,0.00,,OVC037,0.00,VWS V14.01,2013-10-27 00:47:00,
2013-10-26 19:52:00,59.2,53.7,30.14,East,86,0.0,1.0,82,0.00,,OVC037,0.00,VWS V14.01,2013-10-27 00:52:00,
2013-10-26 19:57:00,59.2,53.7,30.14,East,86,0.0,1.0,82,0.00,,OVC037,0.00,VWS V14.01,2013-10-27 00:57:00,
2013-10-26 20:02:00,59.2,53.7,30.14,East,86,0.0,0.0,82,0.00,,OVC037,0.00,VWS V14.01,2013-10-27 01:02:00,
2013-10-26 20:07:00,59.2,54.0,30.14,East,86,0.0,0.0,83,0.00,,OVC037,0.00,VWS V14.01,2013-10-27 01:07:00,
2013-10-26 20:12:00,59.2,54.0,30.14,East,86,0.0,0.0,83,0.00,,OVC037,0.00,VWS V14.01,2013-10-27 01:12:00,
2013-10-26 20:17:00,59.2,54.0,30.14,East,86,0.0,0.0,83,0.00,,OVC037,0.00,VWS V14.01,2013-10-27 01:17:00,
2013-10-26 20:22:00,59.0,53.5,30.14,East,86,0.0,0.0,82,0.00,,OVC037,0.00,VWS V14.01,2013-10-27 01:22:00,
2013-10-26 20:27:00,59.0,53.5,30.14,East,86,0.0,0.0,82,0.00,,OVC037,0.00,VWS V14.01,2013-10-27 01:27:00,
2013-10-26 20:32:00,58.9,53.4,30.14,East,86,0.0,0.0,82,0.00,,OVC037,0.00,VWS V14.01,2013-10-27 01:32:00,
2013-10-26 20:37:00,58.7,53.6,30.14,East,86,0.0,0.0,83,0.00,,OVC037,0.00,VWS V14.01,2013-10-27 01:37:00,
2013-10-26 20:42:00,58.4,53.3,30.14,East,86,0.0,0.0,83,0.00,,OVC037,0.00,VWS V14.01,2013-10-27 01:42:00,
2013-10-26 20:47:00,58.3,53.2,30.14,East,86,0.0,0.0,83,0.00,,OVC037,0.00,VWS V14.01,2013-10-27 01:47:00,
2013-10-26 20:52:00,58.1,53.0,30.14,East,86,0.0,0.0,83,0.00,,OVC037,0.00,VWS V14.01,2013-10-27 01:52:00,
2013-10-26 20:57:00,57.8,53.0,30.14,East,86,0.0,0.0,84,0.00,,OVC037,0.00,VWS V14.01,2013-10-27 01:57:00,
2013-10-26 21:02:00,57.5,53.0,30.14,East,86,0.0,0.0,85,0.00,,SCT100,0.00,VWS V14.01,2013-10-27 02:02:00,
2013-10-26 21:07:00,57.0,52.5,30.14,East,86,0.0,0.0,85,0.00,,SCT100,0.00,VWS V14.01,2013-10-27 02:07:00,
2013-10-26 21:12:00,56.9,52.8,30.14,East,86,0.0,1.0,86,0.00,,SCT100,0.00,VWS V14.01,2013-10-27 02:12:00,
2013-10-26 21:17:00,56.9,53.1,30.15,East,86,0.0,1.0,87,0.00,,SCT100,0.00,VWS V14.01,2013-10-27 02:17:00,
2013-10-26 21:22:00,56.7,53.2,30.15,East,86,0.0,1.0,88,0.00,,SCT100,0.00,VWS V14.01,2013-10-27 02:22:00,
2013-10-26 21:27:00,56.6,53.1,30.15,East,86,0.0,1.0,88,0.00,,SCT100,0.00,VWS V14.01,2013-10-27 02:27:00,
2013-10-26 21:33:00,56.6,53.1,30.15,East,86,0.0,1.0,88,0.00,,SCT100,0.00,VWS V14.01,2013-10-27 02:33:00,
2013-10-26 21:38:00,56.3,52.8,30.15,East,86,0.0,1.0,88,0.00,,SCT100,0.00,VWS V14.01,2013-10-27 02:38:00,
2013-10-26 21:43:00,56.2,53.0,30.15,East,86,0.0,1.0,89,0.00,,SCT100,0.00,VWS V14.01,2013-10-27 02:43:00,
2013-10-26 21:48:00,56.2,53.0,30.14,East,86,0.0,1.0,89,0.00,,SCT100,0.00,VWS V14.01,2013-10-27 02:48:00,
2013-10-26 21:53:00,56.0,52.8,30.14,East,86,0.0,1.0,89,0.00,,SCT100,0.00,VWS V14.01,2013-10-27 02:53:00,
2013-10-26 21:58:00,55.9,52.7,30.14,East,86,0.0,1.0,89,0.00,,SCT100,0.00,VWS V14.01,2013-10-27 02:58:00,
2013-10-26 22:03:00,55.6,52.4,30.15,East,86,0.0,0.0,89,0.00,,BKN130,0.00,VWS V14.01,2013-10-27 03:03:00,
2013-10-26 22:08:00,55.3,52.4,30.15,East,86,0.0,0.0,90,0.00,,BKN130,0.00,VWS V14.01,2013-10-27 03:08:00,
2013-10-26 22:13:00,55.1,52.2,30.15,East,86,0.0,0.0,90,0.00,,BKN130,0.00,VWS V14.01,2013-10-27 03:13:00,
2013-10-26 22:18:00,55.0,51.8,30.15,East,86,0.0,0.0,89,0.00,,BKN130,0.00,VWS V14.01,2013-10-27 03:18:00,
2013-10-26 22:23:00,54.8,51.6,30.15,East,86,0.0,0.0,89,0.00,,BKN130,0.00,VWS V14.01,2013-10-27 03:23:00,
2013-10-26 22:28:00,54.7,51.5,30.15,East,86,0.0,0.0,89,0.00,,BKN130,0.00,VWS V14.01,2013-10-27 03:28:00,
2013-10-26 22:33:00,54.4,51.5,30.16,East,86,0.0,0.0,90,0.00,,BKN130,0.00,VWS V14.01,2013-10-27 03:33:00,
2013-10-26 22:38:00,54.5,51.9,30.16,East,86,0.0,0.0,91,0.00,,BKN130,0.00,VWS V14.01,2013-10-27 03:38:00,
2013-10-26 22:43:00,54.4,52.1,30.16,East,86,0.0,0.0,92,0.00,,BKN130,0.00,VWS V14.01,2013-10-27 03:43:00,
2013-10-26 22:48:00,54.2,52.2,30.16,East,86,0.0,0.0,93,0.00,,BKN130,0.00,VWS V14.01,2013-10-27 03:48:00,
2013-10-26 22:53:00,54.1,52.1,30.16,East,86,0.0,0.0,93,0.00,,BKN130,0.00,VWS V14.01,2013-10-27 03:53:00,
2013-10-26 22:58:00,53.9,51.9,30.16,East,86,0.0,0.0,93,0.00,,BKN130,0.00,VWS V14.01,2013-10-27 03:58:00,
2013-10-26 23:01:00,53.9,51.9,30.16,East,86,0.0,0.0,93,0.00,,BKN130,0.00,VWS V14.01,2013-10-27 04:01:00,
2013-10-26 23:02:00,53.8,51.8,30.16,East,86,0.0,0.0,93,0.00,,BKN130,0.00,VWS V14.01,2013-10-27 04:02:00,
2013-10-26 23:03:00,53.9,51.9,30.16,East,86,0.0,0.0,93,0.00,,BKN130,0.00,VWS V14.01,2013-10-27 04:03:00,
2013-10-26 23:05:00,53.8,51.8,30.16,East,86,0.0,0.0,93,0.00,,BKN130,0.00,VWS V14.01,2013-10-27 04:05:00,
2013-10-26 23:10:00,53.9,52.5,30.16,East,86,0.0,0.0,95,0.00,,BKN130,0.00,VWS V14.01,2013-10-27 04:10:00,
2013-10-26 23:15:00,53.9,52.5,30.15,East,86,0.0,0.0,95,0.00,,BKN130,0.00,VWS V14.01,2013-10-27 04:15:00,
2013-10-26 23:16:00,53.9,52.5,30.15,East,86,0.0,0.0,95,0.00,,BKN130,0.00,VWS V14.01,2013-10-27 04:16:00,
2013-10-26 23:21:00,53.8,52.4,30.15,East,86,0.0,0.0,95,0.00,,BKN130,0.00,VWS V14.01,2013-10-27 04:21:00,
2013-10-26 23:26:00,53.6,52.2,30.15,East,86,0.0,0.0,95,0.00,,BKN130,0.00,VWS V14.01,2013-10-27 04:26:00,
2013-10-26 23:31:00,53.6,52.2,30.15,East,86,0.0,0.0,95,0.00,,BKN130,0.00,VWS V14.01,2013-10-27 04:31:00,
2013-10-26 23:36:00,53.5,52.1,30.15,East,86,0.0,0.0,95,0.00,,BKN130,0.00,VWS V14.01,2013-10-27 04:36:00,
2013-10-26 23:41:00,53.5,52.1,30.15,East,86,0.0,0.0,95,0.00,,BKN130,0.00,VWS V14.01,2013-10-27 04:41:00,
2013-10-26 23:46:00,53.6,52.2,30.15,East,86,0.0,0.0,95,0.00,,BKN130,0.00,VWS V14.01,2013-10-27 04:46:00,
2013-10-26 23:51:00,53.6,52.5,30.15,East,86,0.0,0.0,96,0.00,,BKN130,0.00,VWS V14.01,2013-10-27 04:51:00,
2013-10-26 23:56:00,53.9,52.8,30.15,East,86,0.0,0.0,96,0.00,,BKN130,0.00,VWS V14.01,2013-10-27 04:56:00,